| time (UTC) | temp F | wind direction | speed knots | gust knots | rain 1hr in | rain 24hr in | rain mn in | humidity % | barometer mb |
| 20260507234936 | 55 | 263 | 0.9 | 2.6 | 0.00 | 0.00 | 0.00 | 41 | |
| 20260507234433 | 55 | 239 | 0.0 | 1.7 | 0.00 | 0.00 | 0.00 | 42 | |
| 20260507233929 | 55 | 254 | 0.9 | 0.9 | 0.00 | 0.00 | 0.00 | 41 | |
| 20260507233426 | 55 | 264 | 0.9 | 6.1 | 0.00 | 0.00 | 0.00 | 41 | |
| 20260507232925 | 55 | 308 | 0.9 | 1.7 | 0.00 | 0.00 | 0.00 | 41 | |
| 20260507232421 | 56 | 257 | 0.9 | 0.9 | 0.00 | 0.00 | 0.00 | 40 | |
| 20260507231918 | 56 | 295 | 2.6 | 5.2 | 0.00 | 0.00 | 0.00 | 39 | |
| 20260507231414 | 57 | 269 | 0.9 | 4.3 | 0.00 | 0.00 | 0.00 | 38 | |
| 20260507230911 | 56 | 316 | 2.6 | 5.2 | 0.00 | 0.00 | 0.00 | 39 | |
| 20260507230409 | 56 | 273 | 1.7 | 4.3 | 0.00 | 0.00 | 0.00 | 38 | |
| 20260507225908 | 56 | 309 | 1.7 | 2.6 | 0.00 | 0.00 | 0.00 | 38 | |
| 20260507225405 | 56 | 281 | 1.7 | 5.2 | 0.00 | 0.00 | 0.00 | 38 | |
| 20260507224901 | 57 | 265 | 1.7 | 2.6 | 0.00 | 0.00 | 0.00 | 39 | |
| 20260507224357 | 56 | 291 | 2.6 | 6.1 | 0.00 | 0.00 | 0.00 | 37 | |
| 20260507223854 | 57 | 293 | 0.9 | 6.1 | 0.00 | 0.00 | 0.00 | 38 | |
| 20260507223350 | 57 | 238 | 1.7 | 4.3 | 0.00 | 0.00 | 0.00 | 38 | |
| 20260507222848 | 57 | 271 | 1.7 | 6.1 | 0.00 | 0.00 | 0.00 | 38 | |
| 20260507222344 | 57 | 341 | 7.8 | 11.3 | 0.00 | 0.00 | 0.00 | 37 | |
| 20260507221841 | 57 | 247 | 4.3 | 6.1 | 0.00 | 0.00 | 0.00 | 37 | |
| 20260507221337 | 57 | 305 | 2.6 | 7.8 | 0.00 | 0.00 | 0.00 | 39 | |
| 20260507220833 | 57 | 272 | 3.5 | 7.0 | 0.00 | 0.00 | 0.00 | 37 | |
| 20260507220332 | 58 | 257 | 2.6 | 5.2 | 0.00 | 0.00 | 0.00 | 36 | |
| 20260507215827 | 57 | 288 | 2.6 | 5.2 | 0.00 | 0.00 | 0.00 | 36 | |
| 20260507215324 | 58 | 322 | 2.6 | 5.2 | 0.00 | 0.00 | 0.00 | 37 | |
| 20260507214821 | 58 | 285 | 2.6 | 7.8 | 0.00 | 0.00 | 0.00 | 36 | |
| 20260507214319 | 58 | 330 | 3.5 | 6.1 | 0.00 | 0.00 | 0.00 | 36 | |
| 20260507213814 | 58 | 278 | 4.3 | 5.2 | 0.00 | 0.00 | 0.00 | 36 | |
| 20260507213312 | 58 | 273 | 2.6 | 5.2 | 0.00 | 0.00 | 0.00 | 36 | |
| 20260507212808 | 58 | 293 | 2.6 | 4.3 | 0.00 | 0.00 | 0.00 | 37 | |
| 20260507212307 | 58 | 0 | 6.1 | 8.7 | 0.00 | 0.00 | 0.00 | 35 | |
| 20260507211801 | 58 | 348 | 2.6 | 6.1 | 0.00 | 0.00 | 0.00 | 36 | |
| 20260507211258 | 57 | 254 | 2.6 | 7.0 | 0.00 | 0.00 | 0.00 | 36 | |
| 20260507210754 | 56 | 281 | 1.7 | 8.7 | 0.00 | 0.00 | 0.00 | 37 | |
| 20260507210251 | 58 | 305 | 4.3 | 6.1 | 0.00 | 0.00 | 0.00 | 36 | |
| 20260507205748 | 59 | 309 | 4.3 | 7.0 | 0.00 | 0.00 | 0.00 | 35 | |
| 20260507205245 | 57 | 335 | 2.6 | 6.1 | 0.00 | 0.00 | 0.00 | 36 | |
| 20260507204741 | 57 | 179 | 4.3 | 8.7 | 0.00 | 0.00 | 0.00 | 36 | |
| 20260507204239 | 59 | 272 | 3.5 | 6.1 | 0.00 | 0.00 | 0.00 | 35 | |
| 20260507203736 | 59 | 337 | 3.5 | 9.6 | 0.00 | 0.00 | 0.00 | 35 | |
| 20260507203233 | 59 | 278 | 3.5 | 9.6 | 0.00 | 0.00 | 0.00 | 35 | |
| 20260507202729 | 59 | 266 | 1.7 | 5.2 | 0.00 | 0.00 | 0.00 | 36 | |
| 20260507202220 | 58 | 261 | 3.5 | 7.8 | 0.00 | 0.00 | 0.00 | 36 | |
| 20260507201715 | 59 | 232 | 1.7 | 5.2 | 0.00 | 0.00 | 0.00 | 37 | |
| 20260507201212 | 58 | 293 | 3.5 | 4.3 | 0.00 | 0.00 | 0.00 | 36 | |
| 20260507200708 | 57 | 256 | 5.2 | 7.0 | 0.00 | 0.00 | 0.00 | 37 | |
| 20260507200204 | 56 | 276 | 1.7 | 5.2 | 0.00 | 0.00 | 0.00 | 39 | |
| 20260507195700 | 56 | 306 | 2.6 | 5.2 | 0.00 | 0.00 | 0.00 | 38 | |
| 20260507195152 | 56 | 278 | 2.6 | 6.1 | 0.00 | 0.00 | 0.00 | 38 | |
| 20260507194649 | 56 | 269 | 3.5 | 6.1 | 0.00 | 0.00 | 0.00 | 38 | |
| 20260507194145 | 57 | 240 | 1.7 | 4.3 | 0.00 | 0.00 | 0.00 | 38 | |
| 20260507193642 | 57 | 241 | 1.7 | 5.2 | 0.00 | 0.00 | 0.00 | 37 | |
| 20260507193139 | 59 | 326 | 6.1 | 8.7 | 0.00 | 0.00 | 0.00 | 35 | |
| 20260507192635 | 57 | 231 | 2.6 | 6.1 | 0.00 | 0.00 | 0.00 | 37 | |
| 20260507192132 | 60 | 232 | 6.1 | 7.0 | 0.00 | 0.00 | 0.00 | 33 | |
| 20260507191627 | 59 | 332 | 4.3 | 7.8 | 0.00 | 0.00 | 0.00 | 36 | |
| 20260507191125 | 60 | 228 | 3.5 | 8.7 | 0.00 | 0.00 | 0.00 | 34 | |
| 20260507190622 | 60 | 352 | 5.2 | 6.1 | 0.00 | 0.00 | 0.00 | 34 | |
| 20260507190120 | 60 | 171 | 5.2 | 9.6 | 0.00 | 0.00 | 0.00 | 32 | |
| 20260507185619 | 60 | 339 | 4.3 | 7.0 | 0.00 | 0.00 | 0.00 | 36 | |
| 20260507185115 | 60 | 306 | 3.5 | 6.1 | 0.00 | 0.00 | 0.00 | 38 | |
| 20260507184613 | 60 | 132 | 2.6 | 8.7 | 0.00 | 0.00 | 0.00 | 37 | |
| 20260507184111 | 58 | 259 | 1.7 | 12.2 | 0.00 | 0.00 | 0.00 | 40 | |
| 20260507183607 | 58 | 351 | 4.3 | 6.1 | 0.00 | 0.00 | 0.00 | 37 | |
| 20260507183104 | 57 | 267 | 1.7 | 8.7 | 0.00 | 0.00 | 0.00 | 41 | |
| 20260507182600 | 57 | 260 | 1.7 | 7.8 | 0.00 | 0.00 | 0.00 | 42 | |
| 20260507182055 | 57 | 234 | 1.7 | 5.2 | 0.00 | 0.00 | 0.00 | 40 | |
| 20260507181552 | 57 | 295 | 2.6 | 6.1 | 0.00 | 0.00 | 0.00 | 39 | |
| 20260507181048 | 57 | 348 | 3.5 | 8.7 | 0.00 | 0.00 | 0.00 | 39 | |
| 20260507180545 | 56 | 314 | 4.3 | 7.8 | 0.00 | 0.00 | 0.00 | 41 | |
| 20260507180042 | 56 | 287 | 2.6 | 6.1 | 0.00 | 0.00 | 0.00 | 41 | |
| 20260507175538 | 56 | 258 | 7.0 | 8.7 | 0.00 | 0.00 | 0.00 | 40 | |
| 20260507175037 | 56 | 302 | 2.6 | 7.0 | 0.00 | 0.00 | 0.00 | 42 | |
| 20260507174533 | 55 | 281 | 3.5 | 7.0 | 0.00 | 0.00 | 0.00 | 42 | |
| 20260507174031 | 55 | 337 | 4.3 | 7.8 | 0.00 | 0.00 | 0.00 | 42 | |
| 20260507173527 | 56 | 278 | 1.7 | 7.8 | 0.00 | 0.00 | 0.00 | 42 | |
| 20260507173025 | 56 | 278 | 2.6 | 6.1 | 0.00 | 0.00 | 0.00 | 43 | |
| 20260507172520 | 56 | 313 | 3.5 | 5.2 | 0.00 | 0.00 | 0.00 | 41 | |
| 20260507172017 | 56 | 261 | 1.7 | 4.3 | 0.00 | 0.00 | 0.00 | 42 | |
| 20260507171513 | 57 | 333 | 2.6 | 5.2 | 0.00 | 0.00 | 0.00 | 41 | |
| 20260507171011 | 57 | 288 | 2.6 | 7.0 | 0.00 | 0.00 | 0.00 | 42 | |
| 20260507170507 | 58 | 257 | 1.7 | 5.2 | 0.00 | 0.00 | 0.00 | 41 | |
| 20260507170004 | 55 | 259 | 0.9 | 5.2 | 0.00 | 0.00 | 0.00 | 44 | |
| 20260507165459 | 57 | 279 | 1.7 | 5.2 | 0.00 | 0.00 | 0.00 | 42 | |
| 20260507164955 | 56 | 277 | 1.7 | 5.2 | 0.00 | 0.00 | 0.00 | 41 | |
| 20260507164452 | 56 | 257 | 0.9 | 5.2 | 0.00 | 0.00 | 0.00 | 43 | |
| 20260507163949 | 56 | 250 | 1.7 | 2.6 | 0.00 | 0.00 | 0.00 | 42 | |
| 20260507163447 | 57 | 255 | 2.6 | 7.0 | 0.00 | 0.00 | 0.00 | 42 | |
| 20260507162944 | 57 | 318 | 1.7 | 2.6 | 0.00 | 0.00 | 0.00 | 41 | |
| 20260507162439 | 55 | 326 | 1.7 | 4.3 | 0.00 | 0.00 | 0.00 | 43 | |
| 20260507161936 | 56 | 343 | 2.6 | 6.1 | 0.00 | 0.00 | 0.00 | 42 | |
| 20260507161432 | 57 | 259 | 6.1 | 7.8 | 0.00 | 0.00 | 0.00 | 42 | |
| 20260507160929 | 59 | 301 | 3.5 | 5.2 | 0.00 | 0.00 | 0.00 | 38 | |
| 20260507160425 | 59 | 278 | 3.5 | 8.7 | 0.00 | 0.00 | 0.00 | 40 | |
| 20260507155921 | 60 | 225 | 2.6 | 7.8 | 0.00 | 0.00 | 0.00 | 37 | |
| 20260507155417 | 58 | 254 | 2.6 | 4.3 | 0.00 | 0.00 | 0.00 | 40 | |
| 20260507154915 | 59 | 250 | 0.9 | 5.2 | 0.00 | 0.00 | 0.00 | 39 | |
| 20260507154411 | 59 | 245 | 1.7 | 5.2 | 0.00 | 0.00 | 0.00 | 38 | |
| 20260507153909 | 57 | 272 | 2.6 | 6.1 | 0.00 | 0.00 | 0.00 | 43 | |
| 20260507153405 | 59 | 316 | 3.5 | 5.2 | 0.00 | 0.00 | 0.00 | 41 | |
| 20260507152902 | 58 | 315 | 0.9 | 5.2 | 0.00 | 0.00 | 0.00 | 41 | |
| 20260507152358 | 58 | 237 | 2.6 | 5.2 | 0.00 | 0.00 | 0.00 | 40 | |
| 20260507151854 | 58 | 275 | 2.6 | 6.1 | 0.00 | 0.00 | 0.00 | 39 | |
| 20260507151350 | 58 | 345 | 2.6 | 5.2 | 0.00 | 0.00 | 0.00 | 40 | |
| 20260507150847 | 57 | 246 | 0.9 | 6.1 | 0.00 | 0.00 | 0.00 | 42 | |
| 20260507150344 | 57 | 269 | 2.6 | 5.2 | 0.00 | 0.00 | 0.00 | 40 | |
| 20260507145840 | 57 | 242 | 3.5 | 5.2 | 0.00 | 0.00 | 0.00 | 41 | |
| 20260507145337 | 57 | 346 | 3.5 | 6.1 | 0.00 | 0.00 | 0.00 | 41 | |
| 20260507144834 | 57 | 243 | 0.9 | 2.6 | 0.00 | 0.00 | 0.00 | 40 | |
| 20260507144331 | 56 | 222 | 0.9 | 5.2 | 0.00 | 0.00 | 0.00 | 44 | |
| 20260507143827 | 57 | 248 | 2.6 | 4.3 | 0.00 | 0.00 | 0.00 | 39 | |
| 20260507143320 | 56 | 277 | 2.6 | 2.6 | 0.00 | 0.00 | 0.00 | 40 | |
| 20260507142815 | 57 | 245 | 0.9 | 1.7 | 0.00 | 0.00 | 0.00 | 41 | |
| 20260507142312 | 57 | 274 | 2.6 | 5.2 | 0.00 | 0.00 | 0.00 | 39 | |
| 20260507141809 | 57 | 222 | 0.9 | 0.9 | 0.00 | 0.00 | 0.00 | 42 | |
| 20260507141306 | 56 | 244 | 0.9 | 4.3 | 0.00 | 0.00 | 0.00 | 42 | |
| 20260507140802 | 56 | 281 | 2.6 | 2.6 | 0.00 | 0.00 | 0.00 | 45 | |
| 20260507140259 | 55 | 262 | 0.0 | 1.7 | 0.00 | 0.00 | 0.00 | 44 | |
| 20260507135756 | 53 | 294 | 0.9 | 5.2 | 0.00 | 0.00 | 0.00 | 49 | |
| 20260507135253 | 56 | 6 | 2.6 | 2.6 | 0.00 | 0.00 | 0.00 | 44 | |
| 20260507134750 | 55 | 239 | 0.0 | 1.7 | 0.00 | 0.00 | 0.00 | 43 | |
| 20260507134247 | 55 | 192 | 1.7 | 2.6 | 0.00 | 0.00 | 0.00 | 45 | |
| 20260507133742 | 54 | 244 | 0.9 | 1.7 | 0.00 | 0.00 | 0.00 | 45 | |
| 20260507133239 | 53 | 261 | 1.7 | 2.6 | 0.00 | 0.00 | 0.00 | 46 | |
| 20260507132737 | 54 | 231 | 0.9 | 2.6 | 0.00 | 0.00 | 0.00 | 45 | |
| 20260507132233 | 54 | 246 | 0.9 | 1.7 | 0.00 | 0.00 | 0.00 | 46 | |
| 20260507131730 | 54 | 226 | 0.9 | 1.7 | 0.00 | 0.00 | 0.00 | 44 | |
| 20260507131227 | 52 | 233 | 0.9 | 1.7 | 0.00 | 0.00 | 0.00 | 48 | |
| 20260507130724 | 53 | 272 | 0.9 | 0.9 | 0.00 | 0.00 | 0.00 | 48 | |
| 20260507130222 | 53 | 285 | 1.7 | 4.3 | 0.00 | 0.00 | 0.00 | 47 | |
| 20260507125720 | 52 | 152 | 0.0 | 1.7 | 0.00 | 0.00 | 0.00 | 48 | |
| 20260507125217 | 52 | 248 | 0.9 | 4.3 | 0.00 | 0.00 | 0.00 | 49 | |
| 20260507124714 | 53 | 268 | 0.0 | 1.7 | 0.00 | 0.00 | 0.00 | 49 | |
| 20260507124211 | 52 | 236 | 0.0 | 1.7 | 0.00 | 0.00 | 0.00 | 51 | |
| 20260507123709 | 51 | 237 | 0.9 | 1.7 | 0.00 | 0.00 | 0.00 | 54 | |
| 20260507123206 | 50 | 247 | 0.9 | 1.7 | 0.00 | 0.00 | 0.00 | 56 | |
| 20260507122701 | 50 | 235 | 0.9 | 0.9 | 0.00 | 0.00 | 0.00 | 56 | |
| 20260507122157 | 49 | 261 | 0.0 | 1.7 | 0.00 | 0.00 | 0.00 | 57 | |
| 20260507121653 | 49 | 238 | 0.0 | 1.7 | 0.00 | 0.00 | 0.00 | 59 | |
| 20260507121149 | 48 | 248 | 0.9 | 1.7 | 0.00 | 0.00 | 0.00 | 60 | |
| 20260507120646 | 48 | 263 | 0.9 | 1.7 | 0.00 | 0.00 | 0.00 | 60 | |
| 20260507120142 | 47 | 317 | 0.9 | 1.7 | 0.00 | 0.00 | 0.00 | 61 | |
| 20260507115639 | 47 | 241 | 0.9 | 0.9 | 0.00 | 0.00 | 0.00 | 62 | |
| 20260507115134 | 46 | 239 | 0.0 | 0.9 | 0.00 | 0.00 | 0.00 | 65 | |
| 20260507114630 | 44 | 252 | 0.0 | 0.9 | 0.00 | 0.00 | 0.00 | 67 | |
| 20260507114128 | 43 | 265 | 0.9 | 0.9 | 0.00 | 0.00 | 0.00 | 69 | |
| 20260507113626 | 43 | 263 | 0.0 | 0.9 | 0.00 | 0.00 | 0.00 | 71 | |
| 20260507113122 | 42 | 264 | 0.0 | 0.0 | 0.00 | 0.00 | 0.00 | 72 | |
| 20260507112620 | 42 | 252 | 0.0 | 0.0 | 0.00 | 0.00 | 0.00 | 73 | |
| 20260507112116 | 42 | 239 | 0.0 | 0.0 | 0.00 | 0.00 | 0.00 | 73 | |
| 20260507111614 | 42 | 238 | 0.0 | 0.0 | 0.00 | 0.00 | 0.00 | 73 | |
| 20260507111110 | 42 | 238 | 0.0 | 0.0 | 0.00 | 0.00 | 0.00 | 73 | |
| 20260507110607 | 41 | 236 | 0.0 | 0.0 | 0.00 | 0.00 | 0.00 | 73 | |
| 20260507110103 | 41 | 235 | 0.0 | 0.0 | 0.00 | 0.00 | 0.00 | 73 | |
| 20260507105600 | 41 | 236 | 0.0 | 0.0 | 0.00 | 0.00 | 0.00 | 74 | |
| 20260507105056 | 41 | 236 | 0.0 | 0.0 | 0.00 | 0.00 | 0.00 | 74 | |
| 20260507104554 | 41 | 235 | 0.0 | 0.0 | 0.00 | 0.00 | 0.00 | 74 | |
| 20260507104050 | 41 | 235 | 0.0 | 0.0 | 0.00 | 0.00 | 0.00 | 74 | |
| 20260507103546 | 41 | 235 | 0.0 | 0.0 | 0.00 | 0.00 | 0.00 | 73 | |
| 20260507103043 | 41 | 233 | 0.0 | 0.9 | 0.00 | 0.00 | 0.00 | 73 | |
| 20260507102539 | 41 | 242 | 0.0 | 0.0 | 0.00 | 0.00 | 0.00 | 72 | |
| 20260507102036 | 41 | 250 | 0.0 | 0.0 | 0.00 | 0.00 | 0.00 | 70 | |
| 20260507101531 | 42 | 257 | 0.0 | 0.0 | 0.00 | 0.00 | 0.00 | 69 | |
| 20260507101028 | 42 | 268 | 0.0 | 0.9 | 0.00 | 0.00 | 0.00 | 69 | |
| 20260507100525 | 42 | 270 | 0.9 | 0.9 | 0.00 | 0.00 | 0.00 | 69 | |
| 20260507100023 | 42 | 270 | 0.0 | 0.9 | 0.00 | 0.00 | 0.00 | 68 | |
| 20260507095521 | 42 | 265 | 0.0 | 0.0 | 0.00 | 0.00 | 0.00 | 68 | |
| 20260507095017 | 42 | 255 | 0.0 | 0.0 | 0.00 | 0.00 | 0.00 | 68 | |
| 20260507094514 | 43 | 255 | 0.0 | 0.0 | 0.00 | 0.00 | 0.00 | 67 | |
| 20260507094011 | 43 | 267 | 0.0 | 0.0 | 0.00 | 0.00 | 0.00 | 67 | |
| 20260507093508 | 43 | 259 | 0.0 | 0.0 | 0.00 | 0.00 | 0.00 | 67 | |
| 20260507093007 | 42 | 244 | 0.0 | 0.0 | 0.00 | 0.00 | 0.00 | 66 | |
| 20260507092503 | 43 | 244 | 0.0 | 0.0 | 0.00 | 0.00 | 0.00 | 65 | |
| 20260507092000 | 44 | 242 | 0.0 | 0.0 | 0.00 | 0.00 | 0.00 | 64 | |
| 20260507091456 | 44 | 259 | 0.0 | 0.0 | 0.00 | 0.00 | 0.00 | 63 | |
| 20260507090952 | 44 | 261 | 0.0 | 0.0 | 0.00 | 0.00 | 0.00 | 62 | |
| 20260507090448 | 45 | 264 | 0.0 | 0.9 | 0.00 | 0.00 | 0.00 | 62 | |
| 20260507085945 | 45 | 256 | 0.0 | 0.0 | 0.00 | 0.00 | 0.00 | 62 | |
| 20260507085442 | 45 | 259 | 0.0 | 0.0 | 0.00 | 0.00 | 0.00 | 61 | |
| 20260507084939 | 45 | 261 | 0.0 | 0.0 | 0.00 | 0.00 | 0.00 | 61 | |
| 20260507084435 | 46 | 258 | 0.0 | 0.0 | 0.00 | 0.00 | 0.00 | 60 | |
| 20260507083933 | 46 | 254 | 0.0 | 0.0 | 0.00 | 0.00 | 0.00 | 60 | |
| 20260507083429 | 46 | 277 | 0.9 | 0.9 | 0.00 | 0.00 | 0.00 | 59 | |
| 20260507082925 | 46 | 262 | 0.0 | 0.9 | 0.00 | 0.00 | 0.00 | 59 | |
| 20260507082421 | 46 | 260 | 0.9 | 0.9 | 0.00 | 0.00 | 0.00 | 59 | |
| 20260507081918 | 46 | 254 | 0.9 | 0.9 | 0.00 | 0.00 | 0.00 | 59 | |
| 20260507081414 | 46 | 259 | 0.0 | 0.9 | 0.00 | 0.00 | 0.00 | 59 | |
| 20260507080911 | 46 | 289 | 0.0 | 1.7 | 0.00 | 0.00 | 0.00 | 59 | |
| 20260507080408 | 46 | 253 | 0.0 | 0.9 | 0.00 | 0.00 | 0.00 | 59 | |
| 20260507075903 | 46 | 263 | 0.0 | 0.9 | 0.00 | 0.00 | 0.00 | 59 | |
| 20260507075359 | 46 | 254 | 0.0 | 0.9 | 0.00 | 0.00 | 0.00 | 59 | |
| 20260507074856 | 46 | 252 | 0.0 | 0.9 | 0.00 | 0.00 | 0.00 | 59 | |
| 20260507074353 | 46 | 264 | 0.0 | 0.9 | 0.00 | 0.00 | 0.00 | 59 | |
| 20260507073850 | 46 | 254 | 0.0 | 0.9 | 0.00 | 0.00 | 0.00 | 59 | |
| 20260507073347 | 46 | 277 | 0.0 | 0.9 | 0.00 | 0.00 | 0.00 | 59 | |
| 20260507072844 | 46 | 258 | 0.0 | 0.9 | 0.00 | 0.00 | 0.00 | 59 | |
| 20260507072341 | 46 | 272 | 0.0 | 0.0 | 0.00 | 0.00 | 0.00 | 59 | |
| 20260507071839 | 46 | 288 | 0.0 | 0.9 | 0.00 | 0.00 | 0.00 | 59 | |
| 20260507071336 | 47 | 259 | 0.0 | 0.9 | 0.00 | 0.00 | 0.00 | 59 | |
| 20260507070832 | 47 | 256 | 0.0 | 0.9 | 0.00 | 0.00 | 0.00 | 58 | |
| 20260507070329 | 47 | 260 | 0.0 | 0.9 | 0.00 | 0.00 | 0.00 | 59 | |
| 20260507065826 | 47 | 300 | 0.9 | 1.7 | 0.00 | 0.00 | 0.00 | 59 | |
| 20260507065323 | 47 | 263 | 0.0 | 0.9 | 0.00 | 0.00 | 0.00 | 60 | |
| 20260507064820 | 47 | 265 | 0.0 | 0.9 | 0.00 | 0.00 | 0.00 | 60 | |
| 20260507064318 | 47 | 266 | 0.0 | 1.7 | 0.00 | 0.00 | 0.00 | 61 | |
| 20260507063816 | 47 | 270 | 0.0 | 0.9 | 0.00 | 0.00 | 0.00 | 61 | |
| 20260507063313 | 47 | 256 | 0.0 | 0.0 | 0.00 | 0.00 | 0.00 | 61 | |
| 20260507062809 | 47 | 253 | 0.0 | 0.9 | 0.00 | 0.00 | 0.00 | 61 | |
| 20260507062307 | 46 | 262 | 0.9 | 0.9 | 0.00 | 0.00 | 0.00 | 61 | |
| 20260507061805 | 47 | 258 | 0.0 | 0.9 | 0.00 | 0.00 | 0.00 | 61 | |
| 20260507061302 | 47 | 254 | 0.0 | 0.0 | 0.00 | 0.00 | 0.00 | 60 | |
| 20260507060800 | 47 | 255 | 0.0 | 0.0 | 0.00 | 0.00 | 0.00 | 61 | |
| 20260507060256 | 47 | 247 | 0.0 | 0.0 | 0.00 | 0.00 | 0.00 | 61 | |
| 20260507055753 | 47 | 246 | 0.0 | 0.0 | 0.00 | 0.00 | 0.00 | 60 | |
| 20260507055248 | 47 | 242 | 0.0 | 0.0 | 0.00 | 0.00 | 0.00 | 59 | |
| 20260507054745 | 47 | 242 | 0.0 | 0.0 | 0.00 | 0.00 | 0.00 | 58 | |
| 20260507054242 | 48 | 242 | 0.0 | 0.0 | 0.00 | 0.00 | 0.00 | 57 | |
| 20260507053739 | 48 | 244 | 0.0 | 0.0 | 0.00 | 0.00 | 0.00 | 56 | |
| 20260507053236 | 48 | 244 | 0.0 | 0.0 | 0.00 | 0.00 | 0.00 | 57 | |
| 20260507052735 | 48 | 255 | 0.0 | 0.0 | 0.00 | 0.00 | 0.00 | 56 | |
| 20260507052231 | 48 | 259 | 0.0 | 0.0 | 0.00 | 0.00 | 0.00 | 56 | |
| 20260507051730 | 48 | 239 | 0.0 | 0.0 | 0.00 | 0.00 | 0.00 | 54 | |
| 20260507051226 | 49 | 239 | 0.0 | 0.0 | 0.00 | 0.00 | 0.00 | 54 | |
| 20260507050723 | 49 | 239 | 0.0 | 0.0 | 0.00 | 0.00 | 0.00 | 54 | |
| 20260507050220 | 49 | 238 | 0.0 | 0.0 | 0.00 | 0.00 | 0.00 | 53 | |
| 20260507045716 | 49 | 238 | 0.0 | 0.0 | 0.00 | 0.00 | 0.00 | 52 | |
| 20260507045212 | 50 | 235 | 0.0 | 0.0 | 0.00 | 0.00 | 0.00 | 52 | |
| 20260507044710 | 50 | 257 | 0.0 | 0.0 | 0.00 | 0.00 | 0.00 | 52 | |
| 20260507044206 | 50 | 257 | 0.0 | 0.0 | 0.00 | 0.00 | 0.00 | 51 | |
| 20260507043703 | 50 | 250 | 0.0 | 0.9 | 0.00 | 0.00 | 0.00 | 52 | |
| 20260507043200 | 50 | 250 | 0.0 | 0.0 | 0.00 | 0.00 | 0.00 | 51 | |
| 20260507042656 | 50 | 258 | 0.0 | 0.0 | 0.00 | 0.00 | 0.00 | 51 | |
| 20260507042151 | 50 | 254 | 0.0 | 0.0 | 0.00 | 0.00 | 0.00 | 51 | |
| 20260507041648 | 50 | 257 | 0.0 | 0.0 | 0.00 | 0.00 | 0.00 | 51 | |
| 20260507041144 | 50 | 258 | 0.0 | 0.0 | 0.00 | 0.00 | 0.00 | 51 | |
| 20260507040642 | 50 | 252 | 0.0 | 0.9 | 0.00 | 0.00 | 0.00 | 51 | |
| 20260507040138 | 50 | 252 | 0.0 | 0.0 | 0.00 | 0.00 | 0.00 | 51 | |
| 20260507035634 | 50 | 254 | 0.0 | 0.0 | 0.00 | 0.00 | 0.00 | 51 | |
| 20260507035130 | 50 | 248 | 0.0 | 0.0 | 0.00 | 0.00 | 0.00 | 51 | |
| 20260507034627 | 50 | 252 | 0.0 | 0.0 | 0.00 | 0.00 | 0.00 | 50 | |
| 20260507034125 | 51 | 257 | 0.0 | 0.0 | 0.00 | 0.00 | 0.00 | 50 | |
| 20260507033623 | 51 | 244 | 0.0 | 1.7 | 0.00 | 0.00 | 0.00 | 51 | |
| 20260507033120 | 51 | 257 | 0.0 | 0.0 | 0.00 | 0.00 | 0.00 | 51 | |
| 20260507032617 | 51 | 262 | 0.0 | 0.9 | 0.00 | 0.00 | 0.00 | 51 | |
| 20260507032113 | 51 | 258 | 0.0 | 0.9 | 0.00 | 0.00 | 0.00 | 50 | |
| 20260507031610 | 51 | 248 | 0.0 | 0.9 | 0.00 | 0.00 | 0.00 | 50 | |
| 20260507031107 | 51 | 244 | 0.0 | 0.9 | 0.00 | 0.00 | 0.00 | 50 | |
| 20260507030603 | 51 | 263 | 0.0 | 0.9 | 0.00 | 0.00 | 0.00 | 50 | |
| 20260507030101 | 51 | 270 | 0.9 | 0.9 | 0.00 | 0.00 | 0.00 | 51 | |
| 20260507025558 | 51 | 259 | 0.0 | 0.9 | 0.00 | 0.00 | 0.00 | 51 | |
| 20260507025055 | 50 | 277 | 0.9 | 0.9 | 0.00 | 0.00 | 0.00 | 53 | |
| 20260507024553 | 50 | 238 | 0.0 | 0.0 | 0.00 | 0.00 | 0.00 | 54 | |
| 20260507024050 | 51 | 238 | 0.0 | 0.0 | 0.00 | 0.00 | 0.00 | 52 | |
| 20260507023545 | 51 | 237 | 0.0 | 0.0 | 0.00 | 0.00 | 0.00 | 52 | |
| 20260507023043 | 51 | 234 | 0.0 | 0.0 | 0.00 | 0.00 | 0.00 | 52 | |
| 20260507022540 | 51 | 234 | 0.0 | 0.0 | 0.00 | 0.00 | 0.00 | 51 | |
| 20260507022035 | 51 | 233 | 0.0 | 0.0 | 0.00 | 0.00 | 0.00 | 50 | |
| 20260507021531 | 51 | 235 | 0.0 | 0.0 | 0.00 | 0.00 | 0.00 | 50 | |
| 20260507021028 | 51 | 234 | 0.0 | 0.0 | 0.00 | 0.00 | 0.00 | 49 | |
| 20260507020526 | 51 | 228 | 0.0 | 0.9 | 0.00 | 0.00 | 0.00 | 49 | |
| 20260507020022 | 52 | 247 | 0.0 | 0.0 | 0.00 | 0.00 | 0.00 | 49 | |
| 20260507015520 | 52 | 254 | 0.0 | 0.0 | 0.00 | 0.00 | 0.00 | 48 | |
| 20260507015018 | 52 | 256 | 0.0 | 0.9 | 0.00 | 0.00 | 0.00 | 48 | |
| 20260507014514 | 52 | 261 | 0.0 | 0.9 | 0.00 | 0.00 | 0.00 | 48 | |
| 20260507014010 | 52 | 244 | 0.0 | 0.0 | 0.00 | 0.00 | 0.00 | 48 | |
| 20260507013507 | 52 | 257 | 0.0 | 0.0 | 0.00 | 0.00 | 0.00 | 47 | |
| 20260507013004 | 52 | 261 | 0.0 | 0.9 | 0.00 | 0.00 | 0.00 | 47 | |
| 20260507012501 | 52 | 257 | 0.0 | 0.0 | 0.00 | 0.00 | 0.00 | 48 | |
| 20260507011957 | 52 | 258 | 0.0 | 0.0 | 0.00 | 0.00 | 0.00 | 47 | |
| 20260507011455 | 52 | 258 | 0.0 | 0.0 | 0.00 | 0.00 | 0.00 | 48 | |
| 20260507010950 | 52 | 258 | 0.0 | 0.0 | 0.00 | 0.00 | 0.00 | 47 | |
| 20260507010445 | 52 | 253 | 0.0 | 0.0 | 0.00 | 0.00 | 0.00 | 47 | |
| 20260507005942 | 52 | 258 | 0.0 | 0.0 | 0.00 | 0.00 | 0.00 | 47 | |
| 20260507005439 | 53 | 266 | 0.0 | 0.9 | 0.00 | 0.00 | 0.00 | 46 | |
| 20260507004935 | 53 | 257 | 0.0 | 0.9 | 0.00 | 0.00 | 0.00 | 46 | |
| 20260507004432 | 53 | 255 | 0.0 | 0.0 | 0.00 | 0.00 | 0.00 | 46 | |
| 20260507003930 | 53 | 254 | 0.0 | 0.9 | 0.00 | 0.00 | 0.00 | 46 | |
| 20260507003425 | 53 | 253 | 0.0 | 0.9 | 0.00 | 0.00 | 0.00 | 44 | |
| 20260507002920 | 53 | 252 | 0.0 | 0.9 | 0.00 | 0.00 | 0.00 | 44 | |
| 20260507002417 | 54 | 252 | 0.0 | 0.0 | 0.00 | 0.00 | 0.00 | 44 | |
| 20260507001914 | 53 | 288 | 1.7 | 2.6 | 0.00 | 0.00 | 0.00 | 43 | |
| 20260507001410 | 54 | 265 | 0.0 | 0.9 | 0.00 | 0.00 | 0.00 | 44 | |
| 20260507000908 | 54 | 252 | 0.0 | 0.9 | 0.00 | 0.00 | 0.00 | 44 | |
| 20260507000405 | 54 | 270 | 0.9 | 1.7 | 0.00 | 0.00 | 0.00 | 43 | |
| 20260506235859 | 54 | 302 | 0.9 | 0.9 | 0.00 | 0.00 | 0.00 | 44 | |
| 20260506235357 | 54 | 264 | 0.0 | 1.7 | 0.00 | 0.00 | 0.00 | 44 |